LEGION 4 (60453 NORAD) Tracking and Keplerian Element Data

This shows tracking and keplerian element data for the satellite.

Feedback or suggestion? Click here.




ElementValue
Catalog60453
NameLEGION 4
Epoch Orbit850
Epoch Day286.86190818
Epoch Year2024
RAAN119.9605
Inclination45.0371
Eccentricity0.0003248
Argument of Perigee86.3965
Mean Anonmoly273.7262
Mean Motion14.5763862
Decay Rate1.891E-05
L11 60453U 24146B 24286.86190818 .00001891 00000+0 44424-3 0 9997
L22 60453 45.0371 119.9605 0003248 86.3965 273.7262 14.57638620 8509



Live tracking and technical data element details for LEGION 4 (NORAD 60453). LEGION 4 can be tracked NOW for your location showing map with azimuth and elevation plus other details from your city location.







IsCatalogInMostPopularTable: catalog: 60453, numindb: 6
Update: records affected: 1



GetName: 60453 LEGION 4

Hit Count: updated at: Tue, 03 Dec 2024 03:32:18 GMT